KORONAS-FOTON

Last updated on Wed Jul 02 2025 00:02:14 GMT+0000 (Coordinated Universal Time)

1 33504U 09003A 25182.42143072 .00007094 00000+0 19475-3 0 9996 2 33504 82.4321 175.6867 0011000 347.6664 12.4309 15.36995556907071
UTC large
Height (km)
Speed (km/s)
/
Latitude / Longitude
Inclination (degrees)
Orbital Period (minutes)
Azimuth
Elevation
Range (km)
Doppler Factor

Next 0 passes for location: London (51.5072 / 0.1276)

Sorry there are no passes over London.